Wind_Speed
16 15 13 10 7 8 9 9 7 4 4 6 7 6 10 9 9 5 9 17 16 12 10 9 7 6 7 9 8 7 9 10 15 18 21 21 23 24 23 24 25 24 23 22 22 22 22 23 24
16 15 13 11 10 10 8 9 11 7 6 10 9 6 5 8 9 11 7 8 18 15 11 9 8 7 6 8 8 9 11 13 17 20 22 23 24 23 25 25 24 23 22 21 22 22 23 23 22
20 17 15 10 15 16 3 10 14 7 6 8 10 7 6 7 8 9 8 9 18 15 13 9 8 7 6 7 7 9 12 15 19 21 22 23 24 24 26 24 23 21 20 20 21 21 20 19 19
23 22 20 18 17 19 14 11 13 9 5 7 9 4 7 7 10 12 12 15 18 15 13 11 9 7 7 7 8 9 12 16 18 19 22 24 24 26 25 23 22 20 20 19 19 18 17 16 16
28 27 22 19 26 24 14 17 14 9 4 1 10 4 5 2 7 14 16 18 16 14 14 14 13 12 11 9 9 10 13 15 18 20 22 24 26 26 24 22 20 20 19 18 17 16 15 13 12
28 30 24 27 30 28 25 19 18 16 10 6 7 9 3 1 5 14 13 15 15 15 15 15 14 13 14 14 13 14 15 17 18 21 24 25 28 26 24 22 20 18 17 16 14 13 11 10 9
31 31 29 27 32 32 30 26 24 21 16 10 14 12 7 7 8 10 12 12 12 11 13 14 14 15 15 16 18 18 19 20 20 21 23 26 28 26 24 21 19 18 16 14 12 10 9 6 5
30 30 26 34 28 34 28 25 28 27 23 14 14 16 13 12 13 14 11 11 10 11 11 10 14 15 15 16 19 21 22 23 24 24 24 27 28 27 24 22 20 18 16 13 11 9 8 5 3
28 30 25 29 30 28 20 21 32 34 31 24 16 19 18 17 16 18 13 13 12 12 9 10 12 13 16 17 18 20 25 26 27 28 29 30 29 27 25 23 21 18 15 13 11 9 7 5 2
28 32 30 32 28 26 24 26 28 32 32 32 24 15 21 22 20 16 16 16 16 14 12 11 11 15 16 18 19 21 24 25 28 31 32 32 31 28 25 23 21 19 16 14 11 10 8 5 3
28 31 28 28 25 25 26 28 27 32 37 32 28 22 18 25 27 27 22 21 19 18 17 15 12 13 18 21 22 22 26 28 29 31 32 33 33 31 29 26 23 20 17 15 13 12 10 9 6
24 23 21 21 21 23 26 26 30 31 31 30 32 32 23 26 31 32 28 26 24 21 19 19 16 15 15 20 24 26 28 29 31 33 33 34 35 33 29 26 23 21 18 16 15 14 12 11 10
18 16 17 16 18 19 20 24 24 30 26 27 31 35 32 27 28 35 32 29 29 26 24 19 19 20 18 17 20 24 27 31 33 35 36 36 36 34 31 27 25 22 20 18 16 15 14 13 12
9 8 11 14 17 20 23 24 23 27 18 21 27 32 36 32 27 28 35 28 29 31 26 22 21 21 21 21 20 23 24 29 34 36 38 37 36 34 32 29 27 24 22 21 19 17 16 15 15
15 16 17 16 16 19 20 29 28 20 20 23 25 26 27 34 31 29 32 29 30 30 30 29 26 25 24 27 26 28 27 28 35 39 41 39 38 36 34 33 30 26 26 24 23 20 20 18 19
10 13 11 9 11 13 16 32 22 20 22 23 26 27 23 26 31 30 29 29 24 30 34 30 28 27 25 26 29 33 32 30 29 36 42 42 40 39 38 36 33 32 28 30 26 23 22 21 21
10 7 9 10 10 15 20 24 26 23 25 27 27 28 28 27 30 28 24 25 27 29 33 35 33 29 27 27 30 31 30 28 28 33 40 39 43 42 42 40 35 34 32 30 26 24 25 24 26
3 4 7 9 5 13 22 29 28 27 29 31 29 30 31 34 34 31 28 26 30 35 37 34 33 32 30 29 30 30 29 30 31 30 29 36 45 45 44 42 39 38 36 31 33 32 32 29 30
7 9 10 8 6 20 19 25 26 24 30 30 31 29 32 36 37 39 37 34 34 37 35 37 36 36 34 32 33 37 38 34 36 33 33 32 38 44 41 43 44 40 43 44 33 35 36 30 34
9 12 11 16 13 20 23 29 26 23 27 29 33 34 33 34 37 38 41 44 41 39 37 37 40 38 35 35 34 32 32 31 31 33 34 33 31 42 46 45 39 40 39 44 47 44 47 35 37
11 12 15 17 22 25 28 33 24 26 31 29 33 36 38 35 33 32 35 38 44 46 45 43 43 43 40 39 39 38 36 36 35 35 35 35 34 33 42 48 43 45 47 52 48 46 53 47 45
11 13 18 20 17 20 19 27 32 27 37 35 33 29 28 32 35 34 30 30 41 44 44 45 44 45 46 46 43 42 40 35 31 32 33 32 32 34 38 36 45 48 50 49 47 57 49 52 44
14 20 23 24 22 25 23 29 32 24 28 33 36 35 35 33 34 35 33 29 36 39 41 49 45 44 44 42 45 41 39 34 29 29 31 31 33 34 36 37 34 37 43 45 45 46 46 54 55
23 22 23 28 22 17 26 27 18 23 25 25 27 19 17 23 27 27 33 36 36 37 39 39 41 43 45 47 45 42 39 36 32 34 36 35 34 38 37 37 41 39 41 37 39 50 49 52 50
16 12 13 10 9 12 13 21 27 31 27 29 31 29 32 35 35 39 36 32 39 41 41 44 43 42 39 36 35 36 37 37 37 36 36 38 37 38 37 39 40 41 41 45 45 44 46 49 43
13 11 8 12 14 21 26 14 17 22 26 29 35 33 25 25 29 29 31 36 37 45 45 43 44 43 42 39 39 38 38 35 34 34 33 35 36 36 36 38 40 40 43 45 43 42 39 37 32
10 7 11 14 22 17 15 23 26 6 11 6 8 2 8 15 15 15 18 24 30 35 49 51 46 43 42 42 42 40 39 36 36 34 32 32 32 32 32 36 42 46 45 45 45 39 34 30 24
13 13 5 5 5 9 11 24 19 16 15 6 5 11 11 11 14 15 20 26 29 31 38 52 54 48 44 43 43 42 41 40 40 39 38 38 38 39 39 38 40 39 39 39 40 38 33 30 31
13 10 10 9 8 5 8 10 13 16 27 25 28 30 24 25 18 16 17 19 27 24 27 45 52 55 50 44 43 45 43 42 40 39 38 39 41 42 42 43 43 40 38 33 33 35 38 38 37
16 12 13 10 6 8 7 30 21 14 11 21 34 29 33 28 27 27 20 19 19 18 19 21 38 45 50 46 45 40 37 37 36 36 37 35 30 27 27 30 30 30 31 29 28 28 31 33 34
Wind_Direction
225 227 238 248 244 226 227 221 193 210 205 200 182 195 229 250 243 217 245 228 224 185 165 143 121 109 113 117 133 150 157 155 158 153 152 151 147 143 137 132 128 122 118 113 106 100 95 90 84
228 230 235 241 238 234 240 221 180 188 174 194 211 220 233 246 242 232 239 219 215 181 164 155 132 110 117 118 135 147 156 160 161 158 157 153 150 145 140 137 130 125 121 114 111 107 103 96 88
232 235 242 243 243 235 219 198 208 181 156 196 208 229 234 232 218 231 227 217 202 189 171 165 140 119 118 125 131 143 157 163 165 165 162 157 153 149 145 139 132 128 123 119 117 115 109 102 93
236 239 247 239 236 237 226 186 187 165 152 194 202 223 254 242 236 230 218 206 202 198 180 167 154 133 131 136 137 148 163 166 170 170 166 161 157 154 148 141 136 131 128 126 125 122 117 108 98
233 238 240 239 240 233 221 225 236 209 221 278 185 145 59 252 211 189 200 199 198 203 195 176 174 163 155 154 152 155 167 175 177 175 171 166 161 158 151 145 141 137 136 135 131 124 119 112 102
228 231 235 236 240 237 240 231 256 252 233 239 181 150 116 309 203 189 183 190 195 191 198 189 187 183 172 171 169 167 175 181 185 181 175 170 166 162 156 151 148 145 144 142 138 133 128 125 115
226 229 234 237 244 240 246 239 251 249 244 234 218 199 190 193 191 197 202 193 193 196 190 195 199 197 188 183 180 180 181 184 188 187 182 175 171 167 162 158 155 155 156 156 155 151 149 144 126
224 228 236 239 241 244 247 254 244 255 248 234 234 225 201 204 201 202 214 222 214 209 205 196 202 205 206 199 194 187 186 188 190 189 186 182 177 174 171 167 166 168 170 168 162 160 160 162 139
223 227 236 236 242 247 245 243 232 245 248 237 224 214 213 207 223 222 224 241 243 234 223 223 213 205 213 210 209 203 194 194 193 193 189 187 184 182 179 177 176 178 180 181 177 179 182 177 174
219 227 237 243 246 250 254 249 246 242 246 236 218 213 221 209 207 209 228 237 247 254 257 252 233 227 213 214 216 214 210 206 202 199 195 190 189 188 187 188 186 188 190 194 195 196 201 208 214
228 232 242 250 256 263 265 261 259 251 244 245 229 212 218 221 212 199 216 235 238 242 249 244 236 226 230 224 220 219 217 214 211 208 203 195 194 194 194 194 195 195 198 204 210 213 220 226 225
235 243 253 259 262 261 262 267 253 252 249 245 234 219 217 215 216 206 208 223 227 229 229 232 224 221 225 232 231 226 226 222 218 214 210 205 201 201 200 201 201 202 206 214 220 225 230 231 223
241 249 253 261 261 261 261 261 269 254 258 248 243 227 221 220 212 206 206 212 224 225 226 223 234 231 236 229 233 233 232 230 226 221 217 212 209 207 204 206 208 211 211 218 227 235 237 232 227
232 240 252 259 261 263 264 265 262 263 271 251 247 245 231 227 232 225 209 206 222 228 227 224 222 230 232 231 241 236 233 233 232 228 226 220 217 216 213 210 213 216 223 225 229 234 242 238 230
242 255 262 273 278 276 277 266 265 278 270 261 240 249 246 236 233 234 221 220 222 229 231 242 238 241 236 237 237 234 234 235 235 231 228 226 224 222 219 220 217 220 222 235 237 239 240 243 238
260 271 283 281 273 273 269 267 264 266 265 261 252 244 245 229 228 227 225 226 223 223 230 231 231 236 234 234 240 232 231 234 237 240 234 227 225 228 229 226 226 224 229 236 240 244 248 248 250
265 252 271 280 274 270 258 270 266 272 268 265 264 256 248 236 227 225 226 220 215 227 229 230 236 232 233 232 234 229 231 240 245 253 240 236 228 229 232 232 233 237 234 234 240 250 255 259 256
225 275 291 300 295 272 261 262 268 270 266 266 265 263 258 247 235 229 226 219 223 228 233 232 228 231 232 235 236 231 233 249 253 252 255 246 228 229 232 239 237 239 242 245 243 249 261 263 268
275 288 295 307 282 299 284 284 274 267 262 265 267 265 262 260 252 245 234 228 228 225 229 225 225 227 231 235 238 240 241 245 248 250 247 235 229 232 239 232 233 238 241 244 249 244 257 258 265
265 291 291 303 297 301 294 283 282 269 264 261 260 258 259 261 261 259 255 246 241 237 231 230 227 229 234 241 247 247 248 245 238 241 249 249 243 230 223 239 241 240 242 247 248 254 262 258 260
271 289 298 299 308 299 301 289 286 278 270 267 263 263 263 268 271 269 257 257 250 244 242 238 234 234 240 245 248 250 247 247 242 239 241 243 245 245 232 225 241 248 239 241 244 251 252 254 262
286 295 305 305 309 301 307 293 279 282 287 283 282 280 280 275 273 270 266 255 243 234 235 236 233 237 237 243 246 252 250 247 246 245 244 243 247 244 239 240 230 238 242 244 246 252 245 247 244
292 306 304 300 296 297 288 276 288 290 283 284 280 287 289 280 273 265 257 249 236 231 236 232 231 234 237 238 241 240 243 241 240 235 241 245 242 239 235 240 241 241 242 238 242 246 245 243 244
293 296 297 294 287 267 279 266 293 292 288 294 292 277 278 285 271 271 265 248 239 234 232 230 230 233 236 235 234 236 238 237 236 238 244 247 242 240 243 239 241 248 253 256 254 248 247 242 242
277 297 300 280 251 275 305 299 277 294 294 286 283 280 269 268 268 271 263 251 244 233 232 230 229 229 230 226 227 230 235 240 245 246 243 245 247 246 249 249 251 250 248 250 256 262 273 259 277
279 287 268 288 291 296 297 268 279 306 301 291 285 276 266 266 268 272 274 264 247 238 231 232 230 228 228 226 228 230 235 239 244 241 245 246 247 248 249 250 250 247 246 250 259 268 271 267 265
278 264 270 282 281 280 260 275 294 273 323 327 358 314 254 262 268 267 274 281 262 254 238 232 232 229 231 232 232 229 232 231 233 235 240 244 248 251 253 255 255 254 254 256 262 266 268 268 267
277 267 261 234 274 275 281 287 264 288 284 331 340 320 324 297 287 295 300 298 278 270 247 233 231 232 231 230 230 226 226 228 234 239 244 249 254 254 255 252 257 255 253 256 258 257 257 260 261
264 242 234 239 242 276 296 279 288 282 297 303 306 304 309 312 307 298 290 303 308 300 263 234 226 229 234 228 227 226 228 230 234 241 248 255 260 262 255 249 247 244 245 249 252 253 254 257 258
263 244 234 231 219 235 279 280 284 289 288 307 311 308 299 306 296 290 296 280 287 306 305 248 233 227 222 218 217 215 221 229 236 243 251 259 256 250 241 237 235 232 234 239 242 244 246 249 253
Height
3154 3155 3156 3158 3163 3159 3158 3160 3161 3162 3163 3162 3161 3162 3163 3164 3165 3169 3165 3166 3169 3171 3171 3171 3172 3173 3173 3173 3174 3176 3178 3180 3183 3184 3187 3189 3191 3192 3194 3195 3196 3197 3198 3199 3199 3199 3199 3199 3199
3151 3152 3154 3155 3158 3156 3157 3158 3159 3159 3160 3160 3159 3160 3161 3161 3161 3163 3164 3165 3168 3169 3171 3172 3171 3172 3174 3174 3175 3177 3179 3181 3183 3185 3187 3190 3192 3194 3195 3196 3198 3199 3200 3200 3200 3200 3200 3200 3199
3147 3149 3152 3152 3152 3153 3155 3155 3156 3158 3159 3158 3158 3158 3159 3159 3160 3161 3162 3165 3167 3169 3170 3172 3172 3172 3173 3174 3175 3177 3180 3182 3184 3186 3188 3191 3193 3195 3196 3198 3199 3200 3200 3201 3201 3201 3202 3201 3201
3143 3147 3150 3148 3149 3150 3154 3153 3156 3157 3158 3157 3157 3158 3159 3158 3159 3160 3161 3163 3166 3168 3169 3171 3172 3173 3174 3175 3176 3177 3180 3182 3185 3187 3189 3191 3193 3195 3197 3198 3199 3200 3201 3202 3202 3203 3203 3203 3202
3141 3142 3144 3143 3146 3148 3151 3153 3153 3155 3156 3155 3155 3157 3158 3158 3158 3158 3160 3162 3164 3166 3168 3169 3171 3171 3172 3175 3176 3177 3180 3183 3184 3187 3189 3191 3193 3196 3197 3199 3200 3201 3202 3203 3203 3203 3204 3204 3203
3135 3138 3139 3138 3141 3144 3147 3151 3150 3152 3154 3154 3155 3156 3157 3158 3159 3159 3160 3161 3162 3164 3166 3168 3170 3171 3171 3173 3175 3177 3180 3183 3185 3187 3188 3192 3194 3196 3197 3199 3201 3202 3202 3203 3204 3204 3204 3204 3204
3129 3132 3133 3133 3135 3139 3144 3148 3148 3149 3151 3152 3152 3153 3154 3154 3156 3159 3160 3161 3161 3163 3164 3166 3168 3170 3171 3172 3173 3176 3178 3181 3184 3187 3189 3191 3193 3195 3197 3199 3200 3202 3202 3203 3203 3204 3204 3204 3204
3124 3129 3128 3127 3130 3133 3140 3143 3146 3146 3146 3149 3149 3150 3152 3150 3152 3155 3158 3160 3161 3162 3164 3164 3166 3169 3170 3172 3173 3174 3176 3179 3182 3185 3188 3191 3193 3194 3196 3198 3199 3201 3202 3202 3202 3203 3202 3203 3203
3119 3123 3122 3123 3126 3131 3135 3140 3141 3142 3142 3144 3147 3146 3146 3147 3149 3152 3155 3158 3159 3161 3162 3163 3164 3166 3168 3170 3172 3174 3175 3177 3180 3183 3185 3189 3192 3193 3196 3197 3199 3200 3201 3202 3202 3202 3202 3202 3202
3115 3115 3119 3122 3122 3127 3130 3134 3135 3135 3136 3138 3143 3144 3142 3143 3145 3148 3152 3155 3157 3158 3160 3161 3163 3164 3165 3167 3170 3172 3174 3176 3177 3180 3183 3186 3190 3192 3194 3197 3198 3199 3200 3201 3201 3201 3201 3201 3201
3110 3111 3115 3118 3119 3123 3125 3127 3128 3127 3128 3133 3136 3138 3139 3140 3141 3142 3147 3151 3153 3155 3156 3158 3160 3161 3163 3164 3166 3167 3170 3172 3175 3178 3182 3184 3186 3188 3190 3193 3195 3197 3199 3199 3200 3200 3200 3200 3201
3110 3110 3113 3117 3117 3118 3119 3121 3119 3120 3122 3128 3129 3131 3133 3134 3136 3137 3140 3145 3148 3151 3152 3154 3155 3158 3159 3161 3163 3165 3168 3170 3172 3174 3179 3181 3183 3186 3189 3191 3193 3195 3197 3198 3198 3198 3198 3198 3199
3106 3107 3108 3111 3113 3114 3116 3114 3115 3114 3117 3120 3122 3126 3128 3130 3131 3132 3134 3137 3143 3145 3148 3149 3151 3154 3156 3157 3159 3162 3164 3167 3170 3171 3175 3178 3180 3183 3186 3189 3191 3193 3194 3195 3196 3197 3197 3197 3197
3104 3103 3105 3107 3109 3110 3109 3109 3109 3108 3113 3115 3116 3118 3122 3124 3128 3129 3128 3130 3136 3141 3142 3145 3147 3150 3152 3155 3157 3159 3160 3163 3166 3167 3172 3176 3179 3183 3184 3185 3187 3190 3192 3192 3192 3194 3195 3195 3195
3101 3100 3103 3106 3108 3106 3105 3101 3102 3107 3106 3108 3109 3112 3114 3118 3121 3123 3125 3127 3130 3134 3135 3140 3142 3144 3146 3150 3152 3154 3155 3156 3159 3162 3166 3170 3175 3180 3181 3183 3184 3185 3186 3190 3190 3191 3192 3192 3193
3099 3100 3101 3102 3102 3103 3103 3092 3100 3101 3101 3101 3102 3104 3108 3111 3113 3115 3118 3121 3124 3128 3130 3133 3136 3137 3140 3143 3145 3148 3149 3151 3154 3158 3161 3164 3168 3174 3178 3180 3181 3181 3182 3184 3187 3187 3188 3189 3190
3097 3099 3099 3099 3099 3098 3098 3091 3092 3094 3095 3094 3096 3098 3100 3103 3106 3108 3111 3112 3115 3121 3124 3126 3128 3131 3136 3138 3139 3141 3142 3145 3147 3151 3154 3160 3161 3166 3171 3175 3177 3178 3179 3179 3181 3182 3184 3184 3185
3093 3094 3095 3095 3096 3095 3091 3086 3088 3089 3088 3088 3090 3092 3094 3095 3098 3100 3102 3104 3108 3112 3115 3119 3120 3124 3127 3130 3132 3135 3136 3139 3140 3142 3145 3143 3152 3157 3163 3168 3171 3172 3173 3174 3176 3177 3179 3178 3179
3091 3092 3092 3092 3093 3089 3086 3082 3083 3085 3083 3082 3084 3086 3087 3087 3089 3090 3094 3095 3099 3102 3106 3108 3111 3116 3118 3121 3124 3129 3129 3133 3134 3136 3138 3141 3141 3150 3154 3157 3161 3165 3167 3171 3169 3170 3173 3171 3173
3090 3090 3090 3088 3088 3085 3081 3077 3078 3080 3078 3078 3077 3077 3077 3079 3080 3083 3084 3086 3090 3094 3096 3100 3102 3107 3110 3112 3117 3119 3122 3124 3127 3128 3129 3134 3134 3139 3143 3150 3152 3154 3158 3162 3164 3166 3168 3168 3168
3086 3085 3084 3083 3081 3079 3074 3066 3069 3069 3068 3070 3070 3071 3070 3071 3072 3073 3075 3076 3078 3082 3085 3089 3093 3098 3102 3105 3106 3109 3114 3113 3117 3120 3123 3126 3129 3132 3135 3140 3143 3148 3150 3151 3154 3155 3159 3159 3161
3082 3081 3079 3078 3078 3075 3074 3050 3057 3061 3058 3060 3061 3063 3065 3065 3063 3063 3065 3066 3066 3069 3072 3077 3081 3086 3091 3094 3098 3099 3104 3106 3110 3115 3117 3119 3122 3125 3128 3130 3133 3136 3141 3143 3144 3148 3148 3148 3150
3079 3077 3076 3074 3073 3071 3070 3056 3052 3053 3051 3053 3053 3055 3054 3054 3053 3054 3056 3057 3057 3059 3061 3065 3069 3074 3078 3083 3086 3091 3095 3097 3101 3105 3108 3110 3114 3116 3119 3121 3125 3127 3131 3132 3134 3136 3138 3139 3136
3074 3073 3071 3068 3067 3062 3060 3056 3047 3050 3048 3046 3044 3043 3043 3044 3044 3044 3044 3046 3049 3051 3053 3056 3059 3063 3066 3071 3076 3079 3084 3088 3091 3095 3099 3102 3105 3107 3110 3114 3117 3119 3122 3123 3123 3125 3127 3127 3126
3071 3071 3067 3061 3057 3051 3055 3050 3042 3043 3043 3040 3038 3037 3036 3035 3035 3035 3035 3035 3037 3040 3043 3046 3050 3054 3057 3060 3064 3069 3074 3079 3083 3086 3090 3093 3096 3098 3103 3105 3107 3110 3112 3114 3115 3116 3118 3118 3111
3067 3069 3069 3059 3053 3049 3055 3043 3038 3039 3034 3031 3029 3028 3028 3027 3026 3025 3023 3023 3024 3028 3032 3036 3039 3044 3048 3053 3057 3061 3066 3069 3073 3076 3080 3083 3086 3090 3093 3095 3097 3101 3104 3105 3106 3108 3111 3109 3111
3062 3064 3064 3062 3058 3052 3044 3038 3035 3032 3028 3025 3023 3021 3020 3019 3017 3015 3013 3012 3012 3014 3019 3025 3030 3034 3038 3044 3048 3052 3055 3059 3063 3067 3071 3074 3077 3080 3083 3085 3087 3090 3093 3094 3095 3098 3101 3103 3103
3059 3060 3061 3062 3056 3043 3035 3032 3030 3026 3023 3023 3020 3019 3018 3017 3015 3012 3008 3004 3003 3001 3002 3009 3017 3024 3029 3033 3037 3042 3047 3050 3053 3057 3061 3065 3068 3071 3073 3075 3078 3079 3082 3084 3087 3091 3094 3098 3099
3055 3055 3056 3057 3055 3047 3037 3025 3025 3023 3020 3019 3018 3016 3011 3010 3010 3008 3005 3000 2996 2991 2990 2994 3001 3009 3016 3021 3026 3032 3036 3041 3045 3048 3051 3054 3057 3058 3060 3063 3066 3069 3073 3076 3079 3082 3086 3090 3094
3049 3050 3051 3050 3049 3046 3044 3020 3022 3019 3017 3013 3012 3010 3008 3007 3004 3001 2999 2997 2993 2991 2986 2985 2989 2995 3002 3007 3014 3022 3028 3032 3036 3039 3042 3045 3046 3048 3049 3052 3056 3061 3065 3069 3072 3075 3078 3081 3084